Location: Doschendorf
(50.0069°N, 11.0602°E)
Time: 17:50:00
(UTC+00:00)

Cosmos 1697 Rocket - Pass Details

Date: 17 November 2019
Orbit: 833 x 843 km, 71.0° (Epoch: 05 December)

Event Time Altitude Azimuth Distance (km) Brightness Sun altitude
Rises 16:59:21 0° 190° (S) 3,386 6.2 -14.3°
Reaches altitude 10° 17:01:50 10° 186° (S) 2,455 5.3 -14.6°
Maximum altitude 17:07:16 52° 111° (ESE) 1,039 2.8 -15.5°
Enters shadow 17:11:26 17° 41° (NE) 1,997 4.2 -16.2°
